Hayward, WI

1:11 PM CDT on June 22, 2018 (GMT -0500)
Sawyer County

Weather History for KHYR - January, 2014

Change the Weather History Date:

Wednesday, January 1, 2014

  Actual Average Record
Temperature  
Mean Temperature -8 °F -  
Max Temperature 1 °F 31 °F 37 °F (1949)
Min Temperature -17 °F 1 °F -24 °F (1999)
Degree Days  
Heating Degree Days 73    
Moisture  
Dew Point -14 °F    
Average Humidity 73    
Maximum Humidity 79    
Minimum Humidity 63    
Precipitation  
Precipitation 0.00 in - - ()
Sea Level Pressure  
Sea Level Pressure 30.52 in    
Wind  
Wind Speed 0 mph (NE)    
Max Wind Speed 4 mph    
Max Gust Speed -    
Visibility 10 miles    
Events      
Averages and records for this station are not official NWS values.
T = Trace of Precipitation, MM = Missing Value Source: NWS Daily Summary

Daily Weather History Graph

Daily Weather History Graph

Search for Another Location

Airport or City:

Astronomy

Jan. 01, 2014 Rise Set
Actual Time 7:47 AM CST 4:31 PM CST
Civil Twilight 7:13 AM CST 5:05 PM CST
Nautical Twilight 6:35 AM CST 5:43 PM CST
Astronomical Twilight 5:59 AM CST 6:19 PM CST
Moon 7:34 AM CST (1/1) 5:20 PM CST (1/1)
Length of Visible Light 9h 52m
Length of Day
8h 43m
New Moon, 0% of the Moon is Illuminated
Jan 1
New Moon
Jan 7
First Quarter
Jan 15
Full
Jan 23
Last Quarter
Jan 30
New

Hourly Weather History & Observations

Time (CST) Temp. Windchill Dew Point Humidity Pressure Visibility Wind Dir Wind Speed Gust Speed Precip Events Conditions
12:53 AM -17.0 °F - -23.1 °F 74% 30.49 in 10.0 mi Calm Calm - N/A   Scattered Clouds
1:53 AM -15.0 °F - -22.0 °F 71% 30.50 in 10.0 mi Calm Calm - N/A   Overcast
2:53 AM -15.0 °F - -20.9 °F 75% 30.50 in 10.0 mi Calm Calm - N/A   Overcast
3:53 AM -16.1 °F - -22.0 °F 74% 30.49 in 10.0 mi Calm Calm - N/A   Mostly Cloudy
4:53 AM -17.0 °F - -23.1 °F 74% 30.49 in 10.0 mi Calm Calm - N/A   Overcast
5:53 AM -15.0 °F - -20.0 °F 78% 30.52 in 10.0 mi Calm Calm - N/A   Overcast
6:53 AM -13.0 °F - -18.0 °F 78% 30.52 in 10.0 mi Calm Calm - N/A   Overcast
7:53 AM -11.9 °F - -18.0 °F 74% 30.55 in 10.0 mi Calm Calm - N/A   Overcast
8:53 AM -11.0 °F - -16.1 °F 78% 30.57 in 10.0 mi Calm Calm - N/A   Overcast
9:53 AM -9.0 °F - -14.1 °F 79% 30.59 in 10.0 mi Calm Calm - N/A   Overcast
10:53 AM -6.0 °F - -11.9 °F 75% 30.58 in 10.0 mi Calm Calm - N/A   Overcast
11:53 AM -2.9 °F -11.2 °F -9.9 °F 72% 30.55 in 10.0 mi NE 3.5 mph - N/A   Overcast
12:53 PM -0.9 °F - -9.0 °F 69% 30.53 in 10.0 mi Calm Calm - N/A   Overcast
1:53 PM 1.0 °F - -8.0 °F 66% 30.51 in 10.0 mi Calm Calm - N/A   Overcast
2:53 PM 1.9 °F - -8.0 °F 63% 30.50 in 10.0 mi Calm Calm - N/A   Overcast
3:53 PM 1.9 °F - -8.0 °F 63% 30.50 in 10.0 mi Calm Calm - N/A   Overcast
4:53 PM 1.0 °F - -8.0 °F 66% 30.51 in 10.0 mi Calm Calm - N/A   Overcast
5:53 PM -0.0 °F - -9.0 °F 66% 30.52 in 10.0 mi Calm Calm - N/A   Overcast
6:53 PM -0.0 °F - -8.0 °F 69% 30.53 in 10.0 mi Calm Calm - N/A   Overcast
7:53 PM -0.9 °F - -8.0 °F 72% 30.53 in 10.0 mi Calm Calm - N/A   Overcast
8:53 PM -2.0 °F - -9.0 °F 72% 30.51 in 10.0 mi Calm Calm - N/A   Overcast
9:53 PM -5.1 °F - -11.0 °F 76% 30.51 in 10.0 mi Calm Calm - N/A   Mostly Cloudy
10:53 PM -9.0 °F - -14.1 °F 79% 30.51 in 10.0 mi Calm Calm - N/A   Clear
11:53 PM -9.0 °F - -14.1 °F 79% 30.50 in 10.0 mi Calm Calm - N/A   Mostly Cloudy